Météo par heure à Alida

Ce jour, 15 Mai, Samedi

Heure Température Précipitation Vent Pression Humidité
00:00 +11°C° 0 mm 1 m/s 712 mmHg 71%
01:00 +11°C° 0 mm 1 m/s 712 mmHg 70%
02:00 +11°C° 0 mm 1 m/s 712 mmHg 69%
03:00 +11°C° 0 mm 1 m/s 712 mmHg 69%
04:00 +10°C° 0 mm 2 m/s 712 mmHg 70%
05:00 +10°C° 0 mm 2 m/s 712 mmHg 70%
06:00 +13°C° 0 mm 2 m/s 712 mmHg 62%
07:00 +16°C° 0 mm 2 m/s 712 mmHg 54%
08:00 +18°C° 0 mm 3 m/s 713 mmHg 45%
09:00 +19°C° 0 mm 2 m/s 712 mmHg 41%
10:00 +20°C° 0 mm 2 m/s 712 mmHg 37%
11:00 +23°C° 0 mm 2 m/s 712 mmHg 33%
12:00 +23°C° 0 mm 2 m/s 712 mmHg 31%
13:00 +24°C° 0 mm 2 m/s 712 mmHg 29%
14:00 +24°C° 0 mm 2 m/s 711 mmHg 27%
15:00 +22°C° 0 mm 3 m/s 711 mmHg 30%
16:00 +22°C° 0 mm 3 m/s 710 mmHg 33%
17:00 +21°C° 0 mm 4 m/s 710 mmHg 36%
18:00 +19°C° 0 mm 3 m/s 710 mmHg 42%
19:00 +18°C° 0 mm 3 m/s 710 mmHg 48%
20:00 +16°C° 0 mm 2 m/s 710 mmHg 53%
21:00 +15°C° 0 mm 2 m/s 710 mmHg 56%
22:00 +15°C° 0 mm 2 m/s 710 mmHg 58%
23:00 +14°C° 0 mm 2 m/s 710 mmHg 60%

Demain, 16 Mai, Dimanche

Heure Température Précipitation Vent Pression Humidité
00:00 +14°C° 0 mm 2 m/s 710 mmHg 59%
01:00 +13°C° 0 mm 2 m/s 709 mmHg 59%
02:00 +13°C° 0 mm 2 m/s 709 mmHg 58%
03:00 +13°C° 0 mm 2 m/s 709 mmHg 57%
04:00 +13°C° 0 mm 2 m/s 709 mmHg 57%
05:00 +13°C° 0 mm 2 m/s 709 mmHg 56%
06:00 +16°C° 0 mm 3 m/s 710 mmHg 49%
07:00 +18°C° 0 mm 3 m/s 710 mmHg 42%
08:00 +21°C° 0 mm 4 m/s 710 mmHg 35%
09:00 +22°C° 0 mm 4 m/s 710 mmHg 31%
10:00 +25°C° 0 mm 4 m/s 710 mmHg 26%
11:00 +27°C° 0 mm 4 m/s 710 mmHg 22%
12:00 +27°C° 0 mm 4 m/s 710 mmHg 21%
13:00 +28°C° 0 mm 4 m/s 710 mmHg 20%
14:00 +28°C° 0 mm 4 m/s 710 mmHg 19%
15:00 +28°C° 0 mm 3 m/s 709 mmHg 20%
16:00 +28°C° 0 mm 3 m/s 709 mmHg 21%
17:00 +28°C° 0 mm 3 m/s 709 mmHg 22%
18:00 +26°C° 0 mm 3 m/s 709 mmHg 24%
19:00 +24°C° 0 mm 2 m/s 709 mmHg 27%
20:00 +21°C° 0 mm 2 m/s 709 mmHg 30%
21:00 +20°C° 0 mm 3 m/s 709 mmHg 35%
22:00 +19°C° 0 mm 3 m/s 709 mmHg 39%
23:00 +18°C° 0 mm 4 m/s 709 mmHg 44%

Après-demain, 17 Mai, Lundi

Heure Température Précipitation Vent Pression Humidité
00:00 +17°C° 0 mm 4 m/s 709 mmHg 52%
01:00 +17°C° 0 mm 3 m/s 709 mmHg 60%
02:00 +16°C° 0 mm 3 m/s 709 mmHg 68%
03:00 +16°C° 0 mm 3 m/s 709 mmHg 71%
04:00 +14°C° 0 mm 3 m/s 710 mmHg 74%
05:00 +15°C° 0 mm 2 m/s 710 mmHg 77%
06:00 +17°C° 0 mm 3 m/s 710 mmHg 68%
07:00 +19°C° 0 mm 4 m/s 710 mmHg 58%
08:00 +21°C° 0 mm 5 m/s 710 mmHg 49%
09:00 +23°C° 0 mm 6 m/s 710 mmHg 43%
10:00 +24°C° 0 mm 7 m/s 710 mmHg 37%
11:00 +26°C° 0 mm 8 m/s 710 mmHg 32%
12:00 +27°C° 0 mm 8 m/s 709 mmHg 31%
13:00 +27°C° 0 mm 9 m/s 709 mmHg 30%
14:00 +28°C° 0 mm 9 m/s 709 mmHg 29%
15:00 +28°C° 0 mm 8 m/s 708 mmHg 31%
16:00 +27°C° 0 mm 8 m/s 708 mmHg 32%
17:00 +27°C° 0 mm 7 m/s 708 mmHg 33%
18:00 +26°C° 0 mm 7 m/s 708 mmHg 37%
19:00 +23°C° 0 mm 8 m/s 708 mmHg 41%
20:00 +22°C° 0 mm 8 m/s 708 mmHg 45%
21:00 +21°C° 0 mm 7 m/s 708 mmHg 50%
22:00 +19°C° 0 mm 6 m/s 708 mmHg 54%
23:00 +17°C° 0 mm 5 m/s 708 mmHg 59%

18 Mai, Mardi

Heure Température Précipitation Vent Pression Humidité
00:00 +16°C° 0 mm 5 m/s 708 mmHg 64%
01:00 +16°C° 0 mm 5 m/s 707 mmHg 69%
02:00 +15°C° 0 mm 5 m/s 707 mmHg 75%
03:00 +15°C° 0 mm 5 m/s 707 mmHg 78%
04:00 +15°C° 0 mm 5 m/s 707 mmHg 81%
05:00 +14°C° 0 mm 5 m/s 707 mmHg 84%
06:00 +16°C° 0 mm 5 m/s 707 mmHg 77%
07:00 +19°C° 0 mm 6 m/s 707 mmHg 69%
08:00 +21°C° 0 mm 6 m/s 707 mmHg 62%
09:00 +23°C° 0 mm 6 m/s 707 mmHg 55%
10:00 +26°C° 0 mm 6 m/s 707 mmHg 48%
11:00 +27°C° 0 mm 6 m/s 707 mmHg 41%
12:00 +28°C° 0 mm 6 m/s 707 mmHg 38%
13:00 +29°C° 0 mm 6 m/s 707 mmHg 34%
14:00 +30°C° 0 mm 5 m/s 707 mmHg 31%
15:00 +29°C° 0 mm 6 m/s 707 mmHg 33%
16:00 +29°C° 0 mm 6 m/s 706 mmHg 34%
17:00 +29°C° 0 mm 6 m/s 706 mmHg 36%
18:00 +27°C° 0 mm 6 m/s 706 mmHg 43%
19:00 +25°C° 0 mm 5 m/s 706 mmHg 49%
20:00 +22°C° 0 mm 4 m/s 707 mmHg 56%
21:00 +21°C° 0 mm 4 m/s 707 mmHg 59%
22:00 +20°C° 0 mm 4 m/s 707 mmHg 62%
23:00 +19°C° 0 mm 4 m/s 707 mmHg 64%

19 Mai, Mercredi

Heure Température Précipitation Vent Pression Humidité
00:00 +18°C° 0 mm 3 m/s 707 mmHg 67%
01:00 +18°C° 0 mm 3 m/s 707 mmHg 69%
02:00 +17°C° 0 mm 3 m/s 707 mmHg 72%
03:00 +17°C° 0 mm 3 m/s 707 mmHg 74%
04:00 +17°C° 0 mm 3 m/s 707 mmHg 77%
05:00 +16°C° 0 mm 3 m/s 708 mmHg 79%
06:00 +19°C° 0 mm 3 m/s 708 mmHg 70%
07:00 +21°C° 0 mm 4 m/s 708 mmHg 62%
08:00 +23°C° 0 mm 5 m/s 708 mmHg 53%
09:00 +25°C° 0 mm 5 m/s 708 mmHg 48%
10:00 +26°C° 0 mm 5 m/s 708 mmHg 44%
11:00 +28°C° 0 mm 6 m/s 708 mmHg 39%
12:00 +27°C° 0 mm 6 m/s 708 mmHg 39%
13:00 +27°C° 0 mm 5 m/s 708 mmHg 39%
14:00 +27°C° 0 mm 5 m/s 707 mmHg 39%
15:00 +27°C° 0 mm 5 m/s 707 mmHg 42%
16:00 +26°C° 0 mm 5 m/s 707 mmHg 44%
17:00 +26°C° 0 mm 5 m/s 707 mmHg 47%
18:00 +25°C° 0.3 mm 5 m/s 707 mmHg 50%
19:00 +23°C° 0.3 mm 5 m/s 707 mmHg 53%
20:00 +22°C° 0.3 mm 4 m/s 707 mmHg 56%
21:00 +21°C° 0.2 mm 5 m/s 707 mmHg 60%
22:00 +20°C° 0.2 mm 6 m/s 707 mmHg 64%
23:00 +19°C° 0.2 mm 6 m/s 707 mmHg 67%

20 Mai, Jeudi

Heure Température Précipitation Vent Pression Humidité
00:00 +17°C° 0 mm 5 m/s 707 mmHg 72%
01:00 +17°C° 0 mm 4 m/s 706 mmHg 77%
02:00 +17°C° 0 mm 3 m/s 706 mmHg 82%
03:00 +17°C° 0 mm 3 m/s 706 mmHg 83%
04:00 +16°C° 0 mm 3 m/s 707 mmHg 84%
05:00 +16°C° 0 mm 3 m/s 707 mmHg 86%
06:00 +18°C° 0 mm 4 m/s 707 mmHg 79%
07:00 +19°C° 0 mm 4 m/s 707 mmHg 72%
08:00 +21°C° 0 mm 5 m/s 707 mmHg 66%
09:00 +22°C° 0 mm 5 m/s 707 mmHg 59%
10:00 +25°C° 0 mm 5 m/s 706 mmHg 53%
11:00 +26°C° 0 mm 6 m/s 706 mmHg 46%
12:00 +27°C° 0 mm 6 m/s 706 mmHg 44%
13:00 +27°C° 0 mm 6 m/s 706 mmHg 41%
14:00 +28°C° 0 mm 6 m/s 706 mmHg 38%
15:00 +27°C° 0 mm 6 m/s 706 mmHg 41%
16:00 +26°C° 0 mm 6 m/s 706 mmHg 43%
17:00 +24°C° 0 mm 6 m/s 706 mmHg 45%
18:00 +23°C° 0 mm 6 m/s 706 mmHg 49%
19:00 +22°C° 0 mm 5 m/s 706 mmHg 53%
20:00 +20°C° 0 mm 4 m/s 706 mmHg 57%
21:00 +19°C° 0 mm 4 m/s 706 mmHg 61%
22:00 +18°C° 0 mm 4 m/s 707 mmHg 65%
23:00 +18°C° 0 mm 4 m/s 707 mmHg 68%
Voir plus

Nous avons besoin de votre consentement

Meteoprog et ses fournisseurs de services peuvent stocker et accéder à des données personnelles telles que des cookies, des identifiants d'appareils ou d'autres technologies similaires sur votre appareil et traiter ces données pour personnaliser le contenu et les publicités, ainsi que pour fournir des fonctionnalités de médias sociaux et analyser le trafic.

  • Stocker et/ou accéder à des informations sur votre appareil

    Des cookies, des identifiants d'appareils ou d'autres informations peuvent être stockés ou accessibles sur votre appareil aux fins indiquées ci-dessus.

  • Annonces et contenus personnalisés, mesure des annonces et des contenus, connaissance de l'audience et développement de produits

    Les annonces et le contenu peuvent être personnalisés en fonction d'un profil. D'autres données peuvent être ajoutées pour mieux personnaliser les annonces et le contenu. Les performances des publicités et du contenu peuvent être mesurées. Il est possible d'obtenir des informations sur le public qui a vu les publicités et le contenu. Ces données peuvent être utilisées pour développer ou améliorer l'expérience de l'utilisateur, les systèmes et les logiciels.

En cliquant sur "J'accepte", vous autorisez l'utilisation de cookies, des identifiants d'appareils, des balises web ou d'autres technologies similaires. Vos paramètres peuvent être modifiés dans le navigateur de votre appareil.

Dans certains cas, des intérêts légitimes peuvent être invoqués plutôt qu'un consentement. Vous pouvez en savoir plus à ce sujet dans notre Politique de confidentialité et de cookies.